Bilbao, Spain

8:05 PM CEST on June 28, 2017 (GMT +0200)
Bilbao

Weather History for LEBB - October, 2012

Change the Weather History Date:

Monday, October 29, 2012

  Actual Average Record
Temperature  
Mean Temperature 50 °F -  
Max Temperature 64 °F 59 °F 91 °F (2001)
Min Temperature 35 °F 45 °F 35 °F (2012)
Degree Days  
Heating Degree Days 16    
Moisture  
Dew Point 40 °F    
Average Humidity 74    
Maximum Humidity 100    
Minimum Humidity 42    
Precipitation  
Precipitation 0.00 in - - ()
Sea Level Pressure  
Sea Level Pressure 29.90 in    
Wind  
Wind Speed 3 mph ()    
Max Wind Speed 8 mph    
Max Gust Speed -    
Visibility 6.2 miles    
Events      
Averages and records for this station are not official NWS values.
T = Trace of Precipitation, MM = Missing Value Source: Averaged Metar Reports

Daily Weather History Graph

Daily Weather History Graph

Search for Another Location

Airport or City:

Trip Planner

Search our weather history database for the weather conditions in past years. The results will help you decide how hot, cold, wet, or windy it might be!

Date:

Astronomy

Oct. 29, 2012 Rise Set
Actual Time 7:43 AM CET 6:06 PM CET
Civil Twilight 7:13 AM CET 6:36 PM CET
Nautical Twilight 6:40 AM CET 7:09 PM CET
Astronomical Twilight 6:07 AM CET 7:42 PM CET
Moon 5:49 PM CET (10/29) 7:20 AM CET (10/29)
Length of Visible Light 11h 22m
Length of Day
10h 23m
Full, 100% of the Moon is Illuminated
Oct 29
Full
Oct 29
Full
Nov 7
Last Quarter
Nov 13
New
Nov 20
First Quarter

Hourly Weather History & Observations

Time (CET) Temp. Windchill Dew Point Humidity Pressure Visibility Wind Dir Wind Speed Gust Speed Precip Events Conditions
5:00 AM 35.6 °F 32.8 °F 35.6 °F 100% 30.04 in - SE 3.5 mph - N/A   Clear
5:30 AM 35.6 °F 31.7 °F 35.6 °F 100% 30.04 in - ESE 4.6 mph - N/A   Clear
6:00 AM 35.6 °F 32.8 °F 35.6 °F 100% 30.04 in - SE 3.5 mph - N/A   Clear
6:30 AM 35.6 °F 30.7 °F 33.8 °F 93% 30.01 in - SE 5.8 mph - N/A   Clear
7:00 AM 35.6 °F 32.8 °F 33.8 °F 93% 30.01 in - ESE 3.5 mph - N/A   Clear
7:30 AM 37.4 °F 33.8 °F 35.6 °F 93% 30.01 in - ESE 4.6 mph - N/A   Clear
8:00 AM 37.4 °F 34.9 °F 33.8 °F 87% 29.98 in - SE 3.5 mph - N/A   Clear
8:30 AM 39.2 °F 35.9 °F 35.6 °F 87% 29.98 in - ESE 4.6 mph - N/A   Clear
9:00 AM 41.0 °F 36.4 °F 37.4 °F 87% 29.98 in - ESE 6.9 mph - N/A   Clear
9:30 AM 42.8 °F 39.3 °F 39.2 °F 87% 29.98 in - SE 5.8 mph - N/A   Clear
10:00 AM 46.4 °F 45.2 °F 37.4 °F 71% 29.98 in - ESE 3.5 mph - N/A   Clear
10:30 AM 48.2 °F - 39.2 °F 71% 29.95 in - ESE 8.1 mph - N/A   Clear
11:00 AM 50.0 °F - 39.2 °F 66% 29.95 in - SE 5.8 mph - N/A   Clear
11:30 AM 53.6 °F - 41.0 °F 62% 29.95 in - ESE 3.5 mph - N/A   Clear
12:00 PM 55.4 °F - 41.0 °F 58% 29.95 in - ESE 3.5 mph - N/A   Clear
12:30 PM 57.2 °F - 41.0 °F 55% 29.92 in - Variable 2.3 mph - N/A   Clear
1:00 PM 59.0 °F - 41.0 °F 51% 29.92 in 6.2 mi Variable 1.2 mph - N/A   Partly Cloudy
1:30 PM 59.0 °F - 41.0 °F 51% 29.89 in 6.2 mi Variable 1.2 mph - N/A   Partly Cloudy
2:00 PM 60.8 °F - 41.0 °F 48% 29.89 in 6.2 mi Variable 1.2 mph - N/A   Partly Cloudy
2:30 PM 60.8 °F - 39.2 °F 45% 29.89 in 6.2 mi Variable 2.3 mph - N/A   Partly Cloudy
3:00 PM 64.4 °F - 41.0 °F 42% 29.86 in 6.2 mi Variable 1.2 mph - N/A   Partly Cloudy
3:30 PM 60.8 °F - 41.0 °F 48% 29.86 in - Calm Calm - N/A   Clear
4:00 PM 62.6 °F - 39.2 °F 42% 29.86 in - Calm Calm - N/A   Clear
4:30 PM 62.6 °F - 41.0 °F 45% 29.83 in - Variable 1.2 mph - N/A   Clear
5:00 PM 60.8 °F - 41.0 °F 48% 29.83 in - Calm Calm - N/A   Clear
5:30 PM 60.8 °F - 41.0 °F 48% 29.83 in - Variable 1.2 mph - N/A   Clear
6:00 PM 55.4 °F - 46.4 °F 72% 29.83 in - Calm Calm - N/A   Clear
6:30 PM 51.8 °F - 46.4 °F 82% 29.83 in - Calm Calm - N/A   Clear
7:00 PM 50.0 °F - 44.6 °F 82% 29.83 in - Variable 1.2 mph - N/A   Clear
7:30 PM 48.2 °F - 42.8 °F 82% 29.83 in - Variable 1.2 mph - N/A   Clear
8:00 PM 48.2 °F - 44.6 °F 87% 29.83 in - East 3.5 mph - N/A   Clear
8:30 PM 46.4 °F 45.2 °F 42.8 °F 87% 29.83 in - East 3.5 mph - N/A   Clear
9:30 PM 44.6 °F - 42.8 °F 93% 29.83 in - Variable 2.3 mph - N/A   Clear
10:00 PM 44.6 °F 43.1 °F 42.8 °F 93% 29.83 in - ESE 3.5 mph - N/A   Clear
10:30 PM 42.8 °F - 41.0 °F 93% 29.80 in - Variable 1.2 mph - N/A   Clear
11:00 PM 44.6 °F - 42.8 °F 93% 29.80 in - Calm Calm - N/A   Clear
11:30 PM 42.8 °F - 39.2 °F 87% 29.80 in - Calm Calm - N/A   Clear